This demonstration page uses our WeatherBlox Daily Observations layout. Learn more.

Left ArrowRight Arrow

Hourly Observations for July 22, 2017

Temp ( °F °C ) Dew Point ( °F °C ) Humidity (%) Winds ( mph kmh ) Pressure ( in mb ) Visibility ( mi km ) Precip ( " mm )
12:53 am 00:53 Clear 78 25.6 62 16.7 58 58 Calm 29.85 1011 10 16 0.00 0.00
1:53 am 01:53 Clear 78 25.6 62 16.7 58 58 Calm 29.84 1011 10 16 0.00 0.00
2:53 am 02:53 Clear 78 25.6 63 17.2 60 60 E 3 6 29.83 1010 10 16 0.00 0.00
3:53 am 03:53 Clear 78 25.6 64 17.8 62 62 E 3 6 29.83 1010 10 16 0.00 0.00
4:53 am 04:53 Clear 76 24.4 64 17.8 67 67 Calm 29.83 1010 10 16 0.00 0.00
5:53 am 05:53 Clear 75 23.9 64 17.8 69 69 NW 3 6 29.85 1011 10 16 0.00 0.00
6:53 am 06:53 Clear 75 23.9 64 17.8 69 69 Calm 29.86 1011 10 16 0.00 0.00
7:53 am 07:53 Sunny 75 23.9 64 17.8 69 69 Calm 29.86 1011 10 16 0.00 0.00
8:53 am 08:53 Sunny 78 25.6 64 17.8 62 62 ENE 3 6 29.88 1012 10 16 0.00 0.00
9:53 am 09:53 Sunny 84 28.9 62 16.7 48 48 VRB 3 6 29.88 1012 10 16 0.00 0.00
10:53 am 10:53 Sunny 87 30.6 60 15.6 40 40 WSW 12 19 29.88 1012 10 16 0.00 0.00
11:53 am 11:53 Sunny 88 31.1 59 15 38 38 SW 9 15 29.88 1012 10 16 0.00 0.00
12:53 pm 12:53 Sunny 90 32.2 58 14.4 34 34 VRB 7 11 29.87 1011 10 16 0.00 0.00
1:53 pm 13:53 Sunny 94 34.4 59 15 31 31 WNW 8 13 29.83 1010 10 16 0.00 0.00
2:53 pm 14:53 Mostly Sunny 95 35 59 15 30 30 VRB 6 9 29.78 1009 10 16 0.00 0.00
3:53 pm 15:53 Partly Cloudy with Nearby Thunderstorms 96 35.6 57 13.9 27 27 SSW 8 13 29.76 1008 10 16 0.00 0.00
4:22 pm 16:22 Mostly Cloudy with Thunderstorms 95 35 58 14.4 29 29 SE 18 30 29.65 1004 10 16 0.00 0.00
4:53 pm 16:53 Partly Cloudy with Thunderstorms N/A N/A N/A undefined N/A N/A N/A 0.00 0.03
7:11 pm 19:11 Partly Cloudy with Nearby Thunderstorms 79 26.1 66 18.9 65 65 E 15 24 29.77 1008 10 16 0.00 0.00
7:53 pm 19:53 Mostly Sunny 77 25 68 20 74 74 SE 13 20 29.82 1010 10 16 0.00 0.00
8:00 pm 20:00 Partly Cloudy with Thunderstorms 77 25 68 20 74 74 S 8 13 29.80 1009 10 16 0.00 0.00
8:24 pm 20:24 Mostly Cloudy 76 24.4 67 19.4 74 74 SSE 16 26 29.83 1010 10 16 0.00 0.00
8:34 pm 20:34 Cloudy with Thunderstorms 75 23.9 67 19.4 76 76 SSE 21 33 29.83 1010 10 16 0.00 0.00
8:49 pm 20:49 Cloudy with Heavy Rain 73 23 66 19 78 78 SSE 20 31 29.83 1010 3 5 0.05 1.27
8:53 pm 20:53 Cloudy with Heavy Rain 73 22.8 67 19.4 81 81 S 21 33 29.87 1012 3 4 0.06 1.52
9:02 pm 21:02 Cloudy with Light Rain 72 22.2 67 19.4 84 84 SSE 21 33 29.85 1011 6 10 0.00 0.03
9:53 pm 21:53 Clear 73 22.8 65 18.3 76 76 SSE 17 28 29.87 1012 10 16 0.01 0.25
10:53 pm 22:53 Mostly Clear 75 23.9 67 19.4 76 76 SSE 12 19 29.87 1012 10 16 0.00 0.00
11:53 pm 23:53 Clear 74 23.3 66 18.9 76 76 S 10 17 29.89 1012 10 16 0.00 0.00

Powered by AerisWeather